Regional Weather Roundup
Issued by NWS

Home | Current Version | Previous Version | Text Only | Print | Product List | Glossary On
Versions: 1 2 3 4 5 6 7 8 9 10 11 12 13 14 15 16 17 18 19 20 21 22 23 24 25 26 27 28 29 30 31 32 33 34 35 36 37 38 39 40 41 42 43 44 45 46 47 48 49 50
000
ASUS43 KDTX 140001
RWRMI
MICHIGAN HOURLY REGIONAL WEATHER ROUNDUP
NATIONAL WEATHER SERVICE DETROIT/PONTIAC MI
700 PM EST WED DEC 13 2017

NOTE: "FAIR" INDICATES FEW OR NO CLOUDS BELOW 12,000 FEET WITH NO
SIGNIFICANT WEATHER AND/OR OBSTRUCTION TO VISIBILITY.

MIZ047>049-052>055-059>063-066>070-074>076-081>083-140100-
SOUTHEAST LOWER MICHIGAN

CITY           SKY/WX    TMP DP  RH WIND       PRES   REMARKS
ADRIAN         LGT SNOW  22  20  92 SE10      29.37F VSB 3/4 WCI  11
6HR MIN TEMP:  20; 6HR MAX TEMP:  22; 6HR PCP:  0.06;

ANN ARBOR      LGT SNOW  21  19  92 E9        29.39F VSB 3/4 WCI  11
BAD AXE        LGT SNOW  19  17  90 NE7       29.53F WCI  10
6HR MIN TEMP:  16; 6HR MAX TEMP:  19;

CARO           LGT SNOW  19  17  92 NE7       29.50S VSB 1   WCI  10
DETROIT CITY   SNOW      23  21  92 SE10      29.46F VSB 1/2 WCI  12
6HR MIN TEMP:  20; 6HR MAX TEMP:  23; 6HR PCP:  0.11;

DETROIT        SNOW      25  21  85 SE7       29.44F VSB 1/2 WCI  17
6HR MIN TEMP:  21; 6HR MAX TEMP:  25; 6HR PCP:  0.21;

FLINT          LGT SNOW  20  18  92 E12       29.44F VSB 3/4 WCI   8
6HR MIN TEMP:  18; 6HR MAX TEMP:  20; 6HR PCP:  0.39;

GROSSE ILE     LGT SNOW  24  22  91 SE13G20   29.43F VSB 3/4 WCI  13
6HR MIN TEMP:  22; 6HR MAX TEMP:  25;

HILLSDALE      LGT SNOW  23  21  93 E12       29.30F WCI  12
HOWELL         LGT SNOW  21  20  95 E9        29.39F VSB 1   WCI  11
6HR MIN TEMP:  19; 6HR MAX TEMP:  21; 6HR PCP:  0.01;


CITY           SKY/WX    TMP DP  RH WIND       PRES   REMARKS
JACKSON        LGT SNOW  21  17  84 E12       29.34F VSB 3/4 WCI   9
6HR MIN TEMP:  19; 6HR MAX TEMP:  21; 6HR PCP:  0.08;

LAMBERTVILLE   LGT SNOW  24  21  90 SE6       29.39F VSB 1   WCI  17
6HR MIN TEMP:  20; 6HR MAX TEMP:  24;

LANSING        LGT SNOW  20  18  92 E10       29.40S FOG     WCI   9
6HR MIN TEMP:  19; 6HR MAX TEMP:  20; 6HR PCP:  0.23;

LAPEER         LGT SNOW  19  16  90 E6        29.47F VSB 1   WCI  11
6HR MIN TEMP:  19; 6HR MAX TEMP:  20; 6HR PCP:  0.08;

MASON          LGT SNOW  22  17  81 E7        29.37S WCI  13
6HR MIN TEMP:  19; 6HR MAX TEMP:  22;

MONROE         LGT SNOW  24  20  87 SE9       29.40F VSB 1   WCI  14
6HR MIN TEMP:  20; 6HR MAX TEMP:  24;

MT. CLEMENS    HVY SNOW  22  22  99 E10       29.46F VSB 1/4 WCI  11
6HR MIN TEMP:  21; 6HR MAX TEMP:  23; 6HR PCP:  0.35;

PONTIAC        SNOW      21  20  96 E7        29.41F VSB 1/2 WCI  12
6HR MIN TEMP:  18; 6HR MAX TEMP:  21;

PORT HOPE        N/A     21  18  88 S3        29.54R
6HR MIN TEMP:  17; 6HR MAX TEMP:  23; 6HR PCP:  0.09;

PORT HURON     LGT SNOW  18  14  86 E12       29.51F VSB 3/4 WCI   5
TRI CITIES     LGT SNOW  18  17  96 NE13      29.51R VSB 3/4 WCI   5
6HR MIN TEMP:  18; 6HR MAX TEMP:  19; 6HR PCP:  0.06;

MIDLAND        LGT SNOW  19  16  86 NE9       29.51S WCI   9
6HR MIN TEMP:  19; 6HR MAX TEMP:  20;

TROY           LGT SNOW  24  22  93 E6        29.46F VSB 3/4 WCI  17
SAGINAW HB     LGT SNOW  19  18  93 NE13      29.50S WCI   7
$$
MIZ043>046-050>051-056>058-064>065-071>073-077>080-140100-
SOUTHWEST LOWER MICHIGAN

CITY           SKY/WX    TMP DP  RH WIND       PRES   REMARKS
BATTLE CREEK   LGT SNOW  22  20  92 E9        29.33R VSB 1   WCI  12
6HR MIN TEMP:  22; 6HR MAX TEMP:  25; 6HR PCP:  0.10;

BENTON HARBOR  LGT SNOW  33  28  81 NW18G32   29.33R VSB 3/4 WCI  22
6HR MIN TEMP:  27; 6HR MAX TEMP:  35; 6HR PCP:  0.13;

BIG RAPIDS     LGT SNOW  18  14  86 E12       29.47R WCI   5
6HR MIN TEMP:  17; 6HR MAX TEMP:  18;

COLDWATER      LGT SNOW  25  24  95 SE7       29.30S WCI  17
6HR MIN TEMP:  24; 6HR MAX TEMP:  27;

FREMONT        LGT SNOW  19  18  93 NE10G17   29.45R WCI   8
6HR MIN TEMP:  19; 6HR MAX TEMP:  19;

HOLLAND        LGT SNOW  21  17  84 NE13      29.38R FOG     WCI   9
6HR MIN TEMP:  21; 6HR MAX TEMP:  26; 6HR PCP:  0.10;

GRAND RAPIDS   LGT SNOW  19  16  88 NE15      29.39R VSB 3/4 WCI   5
6HR MIN TEMP:  19; 6HR MAX TEMP:  21; 6HR PCP:  0.17;

IONIA          LGT SNOW  19  17  89 NE13      29.40R WCI   7
6HR MIN TEMP:  19; 6HR MAX TEMP:  20;

KALAMAZOO      LGT SNOW  24  21  88 NE5       29.32R VSB 1   WCI  18
6HR MIN TEMP:  24; 6HR MAX TEMP:  26; 6HR PCP:  0.15;

LUDINGTON      LGT SNOW  19  16  87 NE9       29.52R WCI   8
6HR MIN TEMP:  19; 6HR MAX TEMP:  19;

MARSHALL       LGT SNOW  21  19  93 E5        29.33S WCI  15
6HR MIN TEMP:  21; 6HR MAX TEMP:  23; 6HR PCP:  0.03;

MOUNT PLEASANT LGT SNOW  19  15  83 NE13      29.49R WCI   6
6HR MIN TEMP:  19; 6HR MAX TEMP:  20;

MUSKEGON       LGT SNOW  20  16  84 NE13      29.44R FOG     WCI   7
6HR MIN TEMP:  20; 6HR MAX TEMP:  22; 6HR PCP:  0.11;

SOUTH HAVEN    LGT SNOW  26  22  86 NE7G18    29.34R WCI  18
$$
MIZ016>042-140100-
NORTHERN LOWER MICHIGAN

CITY           SKY/WX    TMP DP  RH WIND       PRES   REMARKS
ALPENA         LGT SNOW  17  15  92 N9        29.62R FOG     WCI   6
6HR MIN TEMP:  15; 6HR MAX TEMP:  17; 6HR PCP:  0.03;

BEAVER ISLAND  CLOUDY    16  11  83 NE9       29.68R WCI   4
6HR MIN TEMP:  16; 6HR MAX TEMP:  19;

BELLAIRE       FLURRIES  15  13  91 N5        29.64R WCI   7
6HR MIN TEMP:  15; 6HR MAX TEMP:  16;

CADILLAC       LGT SNOW  14  11  87 NE13      29.50R WCI   0
CHARLEVOIX     CLOUDY    17  12  79 NE5       29.67R WCI  10
6HR MIN TEMP:  15; 6HR MAX TEMP:  17;

FRANKFORT      LGT SNOW  20  16  85 NE6       29.60R WCI  12
GAYLORD        LGT SNOW  11   7  84 NE6       29.57R FOG     WCI   1
6HR MIN TEMP:  11; 6HR MAX TEMP:  12; 6HR PCP:  0.03;

GRAYLING       LGT SNOW  13   9  83 NE10      29.57R WCI   0
6HR MIN TEMP:  13; 6HR MAX TEMP:  14;

HARBOR SPRINGS CLOUDY    16  10  78 NE8       29.64R WCI   5
HOUGHTON LAKE  LGT SNOW  14  10  84 NE13      29.54R FOG     WCI   0
6HR MIN TEMP:  14; 6HR MAX TEMP:  15; 6HR PCP:  0.19;

MANISTEE       LGT SNOW  17  13  84 NE17G25   29.56R FOG     WCI   1
OSCODA         LGT SNOW  19  15  86 N9        29.58R WCI   7
6HR MIN TEMP:  16; 6HR MAX TEMP:  20; 6HR PCP:  0.02;

PELLSTON       CLOUDY    15  10  80 NE12      29.66R WCI   2
6HR MIN TEMP:  14; 6HR MAX TEMP:  16; 6HR PCP: TRACE;

ROGERS CITY    FLURRIES  17  11  77 NE10G16   29.65R WCI   5
TRAVERSE CITY  LGT SNOW  17  13  84 E13       29.61R VSB 1   WCI   4
6HR MIN TEMP:  17; 6HR MAX TEMP:  19; 6HR PCP:  0.07;

$$
MIZ007>008-015-140100-
EASTERN UPPER MICHIGAN

CITY           SKY/WX    TMP DP  RH WIND       PRES   REMARKS
KINROSS        CLOUDY     1  -4  79 N7        29.70R WCI -12
6HR MIN TEMP:   1; 6HR MAX TEMP:   7;

MACKINAC ISLAN CLOUDY    12   8  85 NE14      29.68R WCI  -3
6HR MIN TEMP:  12; 6HR MAX TEMP:  16;

NEWBERRY       CLOUDY     4   3  96 NE3       29.68R
6HR MIN TEMP:   3; 6HR MAX TEMP:   7;

S. S. MARIE    CLOUDY     8  -1  66 NE6       29.71R WCI  -2
6HR MIN TEMP:   5; 6HR MAX TEMP:   9;

MUNISING         N/A     21  17  84 N18G26    29.71R WCI   6
6HR MIN TEMP:  14; 6HR MAX TEMP:  21;

$$
MIZ004>006-011>014-085-140100-
CENTRAL UPPER MICHIGAN

CITY           SKY/WX    TMP DP  RH WIND       PRES   REMARKS
MANISTIQUE     PTCLDY     7  -3  63 N6        29.71R WCI  -3
6HR MIN TEMP:   7; 6HR MAX TEMP:  15;

ESCANABA       CLOUDY    13   4  67 N9        29.71R WCI   1
6HR MIN TEMP:  13; 6HR MAX TEMP:  22; 6HR PCP: TRACE;

MENOMINEE      FLURRIES  17  13  84 NE16G23   29.69R WCI   2
6HR MIN TEMP:  17; 6HR MAX TEMP:  26; 6HR PCP: TRACE;

SAWYER-GWINN   FLURRIES  16  12  86 NE10      29.68R WCI   3
$$
MIZ001>003-009>011-084-140100-
WESTERN UPPER MICHIGAN

CITY           SKY/WX    TMP DP  RH WIND       PRES   REMARKS
IRON MOUNTAIN  MOCLDY    14   9  80 N5        29.67R WCI   6
6HR MIN TEMP:  14; 6HR MAX TEMP:  17; 6HR PCP: TRACE;

HOUGHTON       LGT SNOW  17  10  74 N10       29.75R WCI   5
COPPER HARBOR    N/A     18  12  77 E20G26    29.79R WCI   2
6HR MIN TEMP:  18; 6HR MAX TEMP:  22; 6HR PCP:  0.03;

IRONWOOD       FLURRIES  19  16  88 NE13G18   29.75R WCI   6
6HR MIN TEMP:  16; 6HR MAX TEMP:  19;

$$

ABBREVIATIONS USED IN REMARKS
   TC - TEMPERATURE IN CELSIUS
  WCI - WIND CHILL INDEX
   HX - HEAT INDEX
  VSB - VISIBILITY





USA.gov is the U.S. government's official web portal to all federal, state and local government web resources and services.